Location: Hackberry
(29.5783°N, 96.8797°W)
Time: 23:11:13
(UTC+00:00)

Courier 1B - Pass Details

Date: 17 November 2024
Orbit: 962 x 1208 km, 28.3° (Epoch: 03 December)

Event Time Altitude Azimuth Distance (km) Brightness Sun altitude
Rises 01:40:33 0° 268° (W) 3,636 11.8 -28.0°
Reaches altitude 10° 01:44:02 10° 250° (WSW) 2,703 10.7 -28.7°
Maximum altitude 01:48:16 18° 208° (SSW) 2,195 9.7 -29.7°
Enters shadow 01:52:29 10° 168° (SSE) 2,741 9.8 -30.6°
